Погода в Сосьве

Россия / Свердловская область     59°10′27″N   61°50′57″E
темп.,
°C
ветер,
м/с
пор.,
м/с
влажн.,
%
обл.,
%
осадки,
мм/ч
давл.,
гПа
погр.,
м
25 февраля, чт
чт2523:00−28с399763 0.0 1028229
02:00−29ссз37971 0.0 1028140
05:00−30ссз24980 0.0 102885
08:00−27сз2699100 0.1 1027144
11:00−22ссз249599 0.1 1026321
14:00−18ссз2489100 0.1 1026510
17:00−18ссз1294100 0.1 1026114
20:00−23с1110085 0.0 102620
26 февраля, пт
пт2623:00−24юз1110043 0.0 102720
02:00−25ююз111007 0.0 102620
05:00−25ю1110022 0.0 102720
08:00−26ю1110038 0.0 102719
11:00−20ю239236 0.0 1026236
14:00−15ю248580 0.0 1025481
17:00−15ююв259185 0.0 1025329
20:00−20ююв259975 0.0 102487
27 февраля, сб
сб2723:00−22ююв269946 0.0 1025100
02:00−24ююв23995 0.0 102373
05:00−26юв27979 0.0 1023132
08:00−28юв28960 0.0 1022188
11:00−23юв36915 0.0 1022323
14:00−19вюв378930 0.0 1020454
17:00−18вюв488963 0.0 1019563
20:00−21в41096100 0.0 1019388
28 февраля, вс
вс2823:00−22в3896100 0.1 1018410
02:00−21в3697100 0.3 1017387
05:00−22всв3697100 0.7 1017357
08:00−22св3697100 0.4 1016326
11:00−21св3595100 0.7 1016362
14:00−19ссв3593100 0.2 1016418
17:00−19ссв3694100 0.4 1016432
20:00−20ссв3697100 0.1 1017293
1 марта, пн
пн123:00−22с259895 0.2 1018157
02:00−26с239880 0.0 101754
05:00−27ссз229859 0.0 101819
08:00−28сз12980 0.0 101719
11:00−21з129110 0.0 1016220
14:00−15юз238687 0.0 1014364
17:00−14ююз249291 0.0 1012330
20:00−18ю369719 0.0 1010100